Regional Weather Roundup
Issued by NWS

Home | Current Version | Previous Version | Text Only | Print | Product List | Glossary Off
Versions: 1 2 3 4 5 6 7 8 9 10 11 12 13 14 15 16 17 18 19 20 21 22 23 24 25 26 27 28 29 30 31 32 33 34 35 36 37 38 39 40 41 42 43 44 45 46 47 48 49 50

000
ASUS43 KIND 040359
RWRIN

WEATHER ROUNDUP FOR INDIANA
NATIONAL WEATHER SERVICE INDIANAPOLIS IN
1100 PM EST TUE MAR 03 2015

NOTE: "FAIR" INDICATES FEW OR NO CLOUDS BELOW 12,000 FEET WITH NO
SIGNIFICANT WEATHER AND/OR OBSTRUCTIONS TO VISIBILITY.

* - STATION DOES NOT REPORT WEATHER SUCH AS PRECIPITATION OR FOG.

+ - STATION NOT QUALITY CONTROLLED BY THE NATIONAL WEATHER SERVICE.
    USE DATA WITH CAUTION...ESPECIALLY DEWPOINT AND RELATIVE
    HUMIDITY OBSERVATIONS.

INZ001>003-010>013-019-020-040500-
NORTHWEST INDIANA

CITY           SKY/WX    TMP DP  RH WIND       PRES   REMARKS
GARY /AIRPORT/ CLOUDY    36  23  60 W12G23    29.86R
VALPARAISO     CLOUDY    34  28  80 W13       29.84R WCI  25

$$

LMZ046-743>745-040500-
SOUTHERN LAKE MICHIGAN

STATION/POSITION TIME  TEMP WIND        PRES
                       AIR  DIR/SP/G
                 (UTC) (F)  (DEG/KT/KT) (MB)
MICHIGAN CITY    0300   33  240/ 11/ 13   N/A

$$

INZ004-005-014>016-021>024-040500-
NORTH CENTRAL INDIANA

CITY           SKY/WX    TMP DP  RH WIND       PRES   REMARKS
GOSHEN         CLOUDY    34  29  82 W13       29.81R WCI  25
SOUTH BEND     CLOUDY    34  34 100 W9        29.84R WCI  27

$$

INZ006>009-017-018-025>027-040500-
NORTHEAST INDIANA

CITY           SKY/WX    TMP DP  RH WIND       PRES   REMARKS
ANGOLA *+      CLOUDY    34  28  80 W9        29.76S WCI  26
FORT WAYNE     CLOUDY    35  31  85 W18       29.81S WCI  24

$$

INZ028-029-035-036-043>045-051>053-040500-
WEST CENTRAL INDIANA

CITY           SKY/WX    TMP DP  RH WIND       PRES   REMARKS
CRAWFORDSVL +  CLOUDY    33  29  85 W7        29.89R WCI  27
GREENCASTLE +  CLOUDY    36  32  87 W3        29.90R FOG
LAFAYETTE      CLOUDY    34  31  88 W8        29.87R WCI  27
TERRE HAUTE    LGT RAIN  37  35  92 NW6       29.91S FOG

$$

INZ030>032-037>040-046>048-054>057-064-065-040500-
CENTRAL INDIANA

CITY           SKY/WX    TMP DP  RH WIND       PRES   REMARKS
GREENWOOD *+   CLOUDY    37  34  87 W6        29.91R
INDIANAPOLIS   LGT RAIN  36  34  92 SW9       29.88R FOG
-EAGLE CREEK   CLOUDY    36  34  92 SW6       29.89R
KOKOMO *+      CLOUDY    34  32  93 W12       29.86R WCI  25
MT COMFORT *+  CLOUDY    36 N/A N/A W9        29.88R
SHELBYVILLE    CLOUDY    39  35  86 W9        29.89R

$$

INZ033-034-041-042-049-050-058-059-040500-
EAST CENTRAL INDIANA

CITY           SKY/WX    TMP DP  RH WIND       PRES   REMARKS
MUNCIE         CLOUDY    36  33  89 W12       29.85R

$$

INZ060-061-067>069-081>083-085>088-040500-
SOUTHWEST INDIANA

CITY           SKY/WX    TMP DP  RH WIND       PRES   REMARKS
EVANSVILLE     RAIN      46  42  86 N7        29.92S FOG
HUNTINGBURG *+ CLOUDY    43  39  87 NW7       29.91F

$$

INZ062-063-066-070>080-084-089>092-040500-
SOUTH CENTRAL AND SOUTHEAST INDIANA

CITY           SKY/WX    TMP DP  RH WIND       PRES   REMARKS
BLOOMINGTON    LGT RAIN  40  38  93 W9        29.90R FOG
SEYMOUR +      LGT RAIN  39  39 100 SW6       29.91R VSB 3/4

$$



USA.gov is the U.S. government's official web portal to all federal, state and local government web resources and services.